DL8FX-6 Weather Reports


time (UTC)temp
C
wind
direction
speed
KPH
gust
KPH
rain 1hr
cm
rain 24hr
cm
rain mn
cm
humidity
%
barometer
mb
20190425183039 17 0.0 0.0 0.00 0.00 0.00 51 1009.8
20190425181535 18 0.0 0.0 0.00 0.00 0.00 48 1009.7
20190425180030 20 0.0 0.0 0.00 0.00 0.00 43 1009.7
20190425174525 21 0.0 0.0 0.00 0.00 0.00 39 1009.7
20190425173021 23 0.0 0.0 0.00 0.00 0.00 30 1009.6
20190425171516 23 33 0.0 8.0 0.00 0.00 0.00 24 1009.7
20190425161559 25 102 1.6 9.7 0.00 0.00 0.00 21 1009.8
20190425160054 25 51 1.6 6.4 0.00 0.00 0.00 22 1009.9
20190425154550 25 58 3.2 6.4 0.00 0.00 0.00 21 1009.9
20190425153045 25 8 3.2 8.0 0.00 0.00 0.00 21 1010.0
20190425151541 26 21 3.2 8.0 0.00 0.00 0.00 20 1010.2
20190425150036 27 61 4.8 11.3 0.00 0.00 0.00 16 1010.2
20190425144532 28 133 3.2 9.7 0.00 0.00 0.00 13 1010.2
20190425143027 27 250 3.2 12.9 0.00 0.00 0.00 14 1010.3
20190425141523 28 128 3.2 12.9 0.00 0.00 0.00 13 1010.4
20190425140018 28 274 1.6 4.8 0.00 0.00 0.00 19 1010.5
20190425124556 26 69 3.2 8.0 0.00 0.00 0.00 22 1011.0
20190425123051 26 142 4.8 14.5 0.00 0.00 0.00 23 1011.0
20190425121547 26 152 4.8 9.7 0.00 0.00 0.00 25 1011.0
20190425120042 25 150 4.8 9.7 0.00 0.00 0.00 27 1011.1
20190425114538 26 173 4.8 11.3 0.00 0.00 0.00 29 1011.1
20190425113033 26 45 1.6 6.4 0.00 0.00 0.00 27 1011.1
20190425111529 25 188 3.2 11.3 0.00 0.00 0.00 23 1011.3
20190425110024 24 119 4.8 8.0 0.00 0.00 0.00 26 1011.2
20190425104520 24 263 3.2 9.7 0.00 0.00 0.00 29 1011.4
20190425103015 24 258 3.2 8.0 0.00 0.00 0.00 29 1011.4
20190425093058 22 278 3.2 8.0 0.00 0.00 0.00 34 1011.8
20190425091557 22 189 3.2 9.7 0.00 0.00 0.00 38 1011.8
20190425090048 21 296 3.2 6.4 0.00 0.00 0.00 44 1011.8
20190425084543 21 295 3.2 8.0 0.00 0.00 0.00 44 1011.8
20190425083039 21 288 3.2 8.0 0.00 0.00 0.00 48 1011.7
20190425081535 19 70 3.2 6.4 0.00 0.00 0.00 50 1011.7
20190425080030 18 259 4.8 9.7 0.00 0.00 0.00 50 1011.5
20190425074525 17 268 3.2 6.4 0.00 0.00 0.00 52 1011.3
20190425073021 18 280 1.6 6.4 0.00 0.00 0.00 50 1011.1
20190425071517 18 269 3.2 8.0 0.00 0.00 0.00 54 1010.9
20190425060114 15 337 1.6 6.4 0.00 0.00 0.00 70 1010.2
20190425054609 15 286 3.2 9.7 0.00 0.00 0.00 70 1010.1
20190425053045 13 258 1.6 4.8 0.00 0.00 0.00 77 1009.8
20190425051540 12 233 1.6 6.4 0.00 0.00 0.00 80 1009.5
20190425050035 12 112 1.6 8.0 0.00 0.00 0.00 79 1009.1
20190425044530 12 267 0.0 4.8 0.00 0.00 0.00 78 1008.8
20190425043026 13 250 1.6 6.4 0.00 0.00 0.00 78 1008.5
20190425041521 13 305 0.0 3.2 0.00 0.00 0.00 79 1008.2
20190425040016 13 286 1.6 4.8 0.00 0.00 0.00 78 1008.1
20190425030059 14 192 1.6 6.4 0.00 0.00 0.00 82 1007.0
20190425024554 13 274 1.6 6.4 0.00 0.00 0.00 85 1006.9
20190425023049 13 196 0.0 8.0 0.00 0.00 0.00 85 1006.6
20190425021545 13 270 0.0 1.6 0.00 0.00 0.00 84 1006.6
20190425020040 13 327 0.0 1.6 0.00 0.00 0.00 83 1006.5
20190425014535 13 0.0 1.6 0.00 0.00 0.00 81 1006.6
20190425013031 14 0.0 0.0 0.00 0.00 0.00 78 1006.4
20190425011526 15 16 0.0 1.6 0.00 0.00 0.00 73 1006.3
20190425010022 15 51 0.0 4.8 0.00 0.00 0.00 71 1006.2
20190425004517 15 263 1.6 4.8 0.00 0.00 0.00 71 1006.1
20190424234600 15 23 1.6 8.0 0.00 0.00 0.00 70 1005.2
20190424233055 15 94 1.6 6.4 0.00 0.00 0.00 69 1005.2
20190424231550 15 32 3.2 14.5 0.00 0.00 0.00 69 1005.2
20190424230045 15 44 3.2 9.7 0.00 0.00 0.00 67 1005.4
20190424224541 15 30 3.2 9.7 0.00 0.00 0.00 66 1005.5
20190424223036 16 91 3.2 6.4 0.00 0.00 0.00 66 1005.5
20190424221531 16 74 3.2 9.7 0.00 0.00 0.00 66 1005.5
20190424220027 16 81 3.2 8.0 0.00 0.00 0.00 65 1005.7
20190424214522 16 60 3.2 9.7 0.00 0.00 0.00 64 1005.8
20190424213018 16 104 3.2 8.0 0.00 0.00 0.00 64 1005.7
20190424203100 17 42 3.2 8.0 0.00 0.00 0.00 61 1006.0
20190424201555 17 55 4.8 11.3 0.00 0.00 0.00 59 1006.2
20190424200050 17 37 4.8 8.0 0.00 0.00 0.00 58 1006.2
20190424194546 17 59 4.8 9.7 0.00 0.00 0.00 58 1006.2
20190424193042 17 74 3.2 9.7 0.00 0.00 0.00 57 1006.1
20190424191537 17 11 1.6 8.0 0.00 0.00 0.00 57 1006.0
20190424190032 18 245 1.6 9.7 0.00 0.00 0.00 55 1005.9
20190424184528 18 58 1.6 6.4 0.00 0.00 0.00 54 1005.8